Вернуться в каталог

STARLINK-34334

АктивенСвязьVLEO
NORAD 64273·PAYLOAD·🇺🇸 United States

Запущен Jun 4, 2025 с Vandenberg Space Force Base

Loading…

Ближайшие Пролёты (ближайшие 24 часа)

TLE

СвежийSource: CelesTrak SupGP

Эпоха: Sep 15, 2026, 02:21 UTC

1 64273C 25120T   26258.09840278  .00045894  00000+0  13560-2 0  2587
2 64273  53.1575 314.6086 0001257  93.0387  61.8701 15.34366063    14

Отслеживайте STARLINK-34334 в реальном времени с AllMySat

Download on the App Store